| time (UTC) | temp F | wind direction | speed MPH | gust MPH | rain 1hr in | rain 24hr in | rain mn in | humidity % | barometer mb |
| 20260504082002 | 49 | 0 | 0.0 | 0.0 | 0.00 | 0.00 | 0.00 | 59 | 1002.4 |
| 20260504081501 | 49 | 0 | 0.0 | 0.0 | 0.00 | 0.00 | 0.00 | 59 | 1002.4 |
| 20260504081000 | 49 | 0 | 0.0 | 0.0 | 0.00 | 0.00 | 0.00 | 59 | 1002.4 |
| 20260504080500 | 49 | 0 | 0.0 | 0.0 | 0.00 | 0.00 | 0.00 | 60 | 1002.4 |
| 20260504050501 | 49 | 0 | 0.0 | 0.0 | 0.00 | 0.00 | 0.00 | 59 | 1005.4 |
| 20260504050000 | 50 | 0 | 0.0 | 0.0 | 0.00 | 0.00 | 0.00 | 59 | 1005.4 |
| 20260504045501 | 50 | 0 | 0.0 | 0.0 | 0.00 | 0.00 | 0.00 | 58 | 1005.4 |
| 20260504045000 | 50 | 0 | 0.0 | 0.0 | 0.00 | 0.00 | 0.00 | 58 | 1005.4 |
| 20260504044500 | 50 | 0 | 0.0 | 0.0 | 0.00 | 0.00 | 0.00 | 58 | 1005.8 |
| 20260504044000 | 51 | 0 | 0.0 | 0.0 | 0.00 | 0.00 | 0.00 | 58 | 1005.8 |
| 20260504043500 | 51 | 0 | 0.0 | 0.0 | 0.00 | 0.00 | 0.00 | 57 | 1005.8 |
| 20260504043000 | 51 | 0 | 0.0 | 0.0 | 0.00 | 0.00 | 0.00 | 57 | 1005.8 |
| 20260504042501 | 51 | 0 | 0.0 | 0.0 | 0.00 | 0.00 | 0.00 | 57 | 1005.8 |
| 20260504042000 | 52 | 0 | 0.0 | 0.0 | 0.00 | 0.00 | 0.00 | 56 | 1005.8 |
| 20260504041501 | 52 | 0 | 0.0 | 0.0 | 0.00 | 0.00 | 0.00 | 56 | 1005.8 |
| 20260504041001 | 52 | 0 | 0.0 | 0.0 | 0.00 | 0.00 | 0.00 | 55 | 1006.1 |
| 20260504040500 | 52 | 0 | 0.0 | 0.0 | 0.00 | 0.00 | 0.00 | 54 | 1006.1 |
| 20260504035501 | 53 | 0 | 0.0 | 0.0 | 0.00 | 0.00 | 0.00 | 53 | 1006.4 |
| 20260504035000 | 54 | 0 | 0.0 | 0.0 | 0.00 | 0.00 | 0.00 | 53 | 1006.4 |
| 20260504034500 | 54 | 0 | 0.0 | 0.0 | 0.00 | 0.00 | 0.00 | 52 | 1006.4 |
| 20260504034000 | 54 | 0 | 0.0 | 0.0 | 0.00 | 0.00 | 0.00 | 51 | 1006.4 |
| 20260504033501 | 54 | 0 | 0.0 | 0.0 | 0.00 | 0.00 | 0.00 | 51 | 1006.4 |
| 20260504033001 | 55 | 0 | 0.0 | 0.0 | 0.00 | 0.00 | 0.00 | 50 | 1006.4 |
| 20260504032500 | 55 | 0 | 0.0 | 0.0 | 0.00 | 0.00 | 0.00 | 50 | 1006.8 |
| 20260504032000 | 56 | 0 | 0.0 | 0.0 | 0.00 | 0.00 | 0.00 | 48 | 1006.8 |
| 20260504031500 | 56 | 0 | 0.0 | 0.0 | 0.00 | 0.00 | 0.00 | 48 | 1006.8 |
| 20260504031000 | 56 | 0 | 0.0 | 0.0 | 0.00 | 0.00 | 0.00 | 47 | 1006.8 |
| 20260504030501 | 57 | 0 | 0.0 | 0.0 | 0.00 | 0.00 | 0.00 | 47 | 1006.8 |
| 20260504030000 | 57 | 0 | 0.0 | 0.0 | 0.00 | 0.00 | 0.00 | 47 | 1006.8 |
| 20260504025500 | 57 | 0 | 0.0 | 0.0 | 0.00 | 0.00 | 0.00 | 46 | 1006.8 |
| 20260504025001 | 57 | 0 | 0.0 | 0.0 | 0.00 | 0.00 | 0.00 | 45 | 1006.8 |
| 20260504024500 | 58 | 0 | 0.0 | 0.0 | 0.00 | 0.00 | 0.00 | 45 | 1006.8 |
| 20260504024000 | 58 | 0 | 0.0 | 0.0 | 0.00 | 0.00 | 0.00 | 45 | 1006.8 |
| 20260504023500 | 58 | 0 | 0.0 | 0.0 | 0.00 | 0.00 | 0.00 | 44 | 1006.8 |
| 20260504023001 | 59 | 0 | 0.0 | 0.0 | 0.00 | 0.00 | 0.00 | 44 | 1007.1 |
| 20260504022500 | 59 | 0 | 0.0 | 0.0 | 0.00 | 0.00 | 0.00 | 43 | 1007.1 |
| 20260504022000 | 59 | 0 | 0.0 | 0.0 | 0.00 | 0.00 | 0.00 | 42 | 1007.1 |
| 20260504021500 | 60 | 0 | 0.0 | 0.0 | 0.00 | 0.00 | 0.00 | 41 | 1007.1 |
| 20260504021001 | 60 | 0 | 0.0 | 0.0 | 0.00 | 0.00 | 0.00 | 41 | 1007.1 |
| 20260504020500 | 60 | 0 | 0.0 | 0.0 | 0.00 | 0.00 | 0.00 | 40 | 1007.1 |
| 20260504020001 | 61 | 0 | 0.0 | 0.0 | 0.00 | 0.00 | 0.00 | 39 | 1007.1 |
| 20260504015500 | 61 | 0 | 0.0 | 0.0 | 0.00 | 0.00 | 0.00 | 38 | 1007.1 |
| 20260504015000 | 62 | 0 | 0.0 | 0.0 | 0.00 | 0.00 | 0.00 | 37 | 1007.1 |
| 20260504014500 | 62 | 0 | 0.0 | 0.0 | 0.00 | 0.00 | 0.00 | 36 | 1007.1 |
| 20260504014001 | 62 | 0 | 0.0 | 0.0 | 0.00 | 0.00 | 0.00 | 36 | 1007.1 |
| 20260504013501 | 63 | 0 | 0.0 | 0.0 | 0.00 | 0.00 | 0.00 | 35 | 1007.1 |
| 20260504013000 | 64 | 0 | 0.0 | 0.0 | 0.00 | 0.00 | 0.00 | 34 | 1007.1 |
| 20260504012501 | 64 | 0 | 0.0 | 0.0 | 0.00 | 0.00 | 0.00 | 34 | 1007.1 |
| 20260504012000 | 64 | 0 | 0.0 | 0.0 | 0.00 | 0.00 | 0.00 | 32 | 1007.1 |
| 20260504011500 | 65 | 0 | 0.0 | 0.0 | 0.00 | 0.00 | 0.00 | 32 | 1007.1 |
| 20260504011000 | 65 | 0 | 0.0 | 0.0 | 0.00 | 0.00 | 0.00 | 31 | 1007.1 |
| 20260504010501 | 65 | 0 | 0.0 | 0.0 | 0.00 | 0.00 | 0.00 | 31 | 1007.1 |
| 20260504005501 | 66 | 0 | 0.0 | 0.0 | 0.00 | 0.00 | 0.00 | 30 | 1007.1 |
| 20260504005000 | 66 | 0 | 0.0 | 0.0 | 0.00 | 0.00 | 0.00 | 29 | 1007.1 |
| 20260504004500 | 67 | 0 | 0.0 | 0.0 | 0.00 | 0.00 | 0.00 | 29 | 1007.1 |
| 20260504004000 | 67 | 0 | 0.0 | 0.0 | 0.00 | 0.00 | 0.00 | 29 | 1007.1 |
| 20260504003001 | 68 | 321 | 1.0 | 1.0 | 0.00 | 0.00 | 0.00 | 28 | 1007.1 |
| 20260504002501 | 68 | 321 | 1.0 | 1.0 | 0.00 | 0.00 | 0.00 | 28 | 1007.1 |
| 20260504002001 | 68 | 0 | 0.0 | 0.0 | 0.00 | 0.00 | 0.00 | 27 | 1007.1 |
| 20260504001500 | 68 | 0 | 0.0 | 0.0 | 0.00 | 0.00 | 0.00 | 27 | 1007.1 |
| 20260504001000 | 68 | 0 | 0.0 | 0.0 | 0.00 | 0.00 | 0.00 | 27 | 1007.5 |
| 20260504000500 | 69 | 0 | 0.0 | 0.0 | 0.00 | 0.00 | 0.00 | 28 | 1007.5 |
| 20260504000000 | 69 | 0 | 0.0 | 0.0 | 0.00 | 0.00 | 0.00 | 27 | 1007.5 |
| 20260503235500 | 69 | 0 | 0.0 | 0.0 | 0.00 | 0.00 | 0.00 | 27 | 1007.5 |
| 20260503235001 | 69 | 5 | 1.0 | 1.0 | 0.00 | 0.00 | 0.00 | 27 | 1007.5 |
| 20260503234500 | 69 | 0 | 0.0 | 0.0 | 0.00 | 0.00 | 0.00 | 27 | 1007.5 |
| 20260503234000 | 69 | 306 | 1.0 | 1.0 | 0.00 | 0.00 | 0.00 | 27 | 1007.5 |
| 20260503233500 | 69 | 299 | 3.0 | 3.0 | 0.00 | 0.00 | 0.00 | 26 | 1007.5 |
| 20260503233000 | 69 | 329 | 2.0 | 2.0 | 0.00 | 0.00 | 0.00 | 28 | 1007.5 |
| 20260503232501 | 69 | 321 | 1.0 | 1.0 | 0.00 | 0.00 | 0.00 | 27 | 1007.5 |
| 20260503232001 | 69 | 319 | 4.0 | 4.0 | 0.00 | 0.00 | 0.00 | 28 | 1007.5 |
| 20260503231501 | 69 | 326 | 4.0 | 4.0 | 0.00 | 0.00 | 0.00 | 27 | 1007.5 |
| 20260503231001 | 69 | 317 | 1.0 | 1.0 | 0.00 | 0.00 | 0.00 | 28 | 1007.5 |
| 20260503230500 | 69 | 326 | 1.0 | 1.0 | 0.00 | 0.00 | 0.00 | 28 | 1007.5 |
| 20260503230001 | 69 | 288 | 3.0 | 3.0 | 0.00 | 0.00 | 0.00 | 27 | 1007.5 |
| 20260503225500 | 69 | 334 | 3.0 | 3.0 | 0.00 | 0.00 | 0.00 | 27 | 1007.5 |
| 20260503225000 | 70 | 321 | 2.0 | 2.0 | 0.00 | 0.00 | 0.00 | 27 | 1007.5 |
| 20260503224500 | 70 | 290 | 1.0 | 1.0 | 0.00 | 0.00 | 0.00 | 28 | 1007.5 |
| 20260503224000 | 70 | 305 | 1.0 | 1.0 | 0.00 | 0.00 | 0.00 | 28 | 1007.5 |
| 20260503223501 | 69 | 336 | 4.0 | 4.0 | 0.00 | 0.00 | 0.00 | 29 | 1007.5 |
| 20260503223000 | 70 | 299 | 3.0 | 3.0 | 0.00 | 0.00 | 0.00 | 28 | 1007.5 |
| 20260503222501 | 70 | 317 | 8.0 | 8.0 | 0.00 | 0.00 | 0.00 | 28 | 1007.5 |
| 20260503222001 | 70 | 135 | 4.0 | 4.0 | 0.00 | 0.00 | 0.00 | 30 | 1007.5 |
| 20260503221500 | 70 | 327 | 1.0 | 1.0 | 0.00 | 0.00 | 0.00 | 28 | 1007.5 |
| 20260503221001 | 70 | 284 | 1.0 | 1.0 | 0.00 | 0.00 | 0.00 | 27 | 1007.8 |
| 20260503220500 | 70 | 317 | 2.0 | 2.0 | 0.00 | 0.00 | 0.00 | 27 | 1007.8 |
| 20260503220001 | 70 | 296 | 3.0 | 3.0 | 0.00 | 0.00 | 0.00 | 27 | 1007.8 |
| 20260503215500 | 70 | 325 | 1.0 | 1.0 | 0.00 | 0.00 | 0.00 | 29 | 1007.5 |
| 20260503215001 | 71 | 355 | 1.0 | 1.0 | 0.00 | 0.00 | 0.00 | 29 | 1007.5 |
| 20260503214501 | 71 | 0 | 0.0 | 0.0 | 0.00 | 0.00 | 0.00 | 28 | 1007.5 |
| 20260503214001 | 71 | 298 | 3.0 | 3.0 | 0.00 | 0.00 | 0.00 | 28 | 1007.8 |
| 20260503213500 | 71 | 335 | 5.0 | 5.0 | 0.00 | 0.00 | 0.00 | 26 | 1007.8 |
| 20260503213000 | 71 | 271 | 2.0 | 2.0 | 0.00 | 0.00 | 0.00 | 27 | 1007.8 |
| 20260503212501 | 71 | 336 | 1.0 | 1.0 | 0.00 | 0.00 | 0.00 | 28 | 1007.8 |
| 20260503212000 | 71 | 333 | 2.0 | 2.0 | 0.00 | 0.00 | 0.00 | 28 | 1007.8 |
| 20260503211500 | 72 | 272 | 3.0 | 3.0 | 0.00 | 0.00 | 0.00 | 28 | 1007.8 |
| 20260503211000 | 71 | 0 | 0.0 | 0.0 | 0.00 | 0.00 | 0.00 | 29 | 1007.8 |
| 20260503210501 | 71 | 0 | 0.0 | 0.0 | 0.00 | 0.00 | 0.00 | 30 | 1007.8 |
| 20260503210001 | 71 | 355 | 3.0 | 3.0 | 0.00 | 0.00 | 0.00 | 30 | 1008.1 |
| 20260503205501 | 71 | 333 | 4.0 | 4.0 | 0.00 | 0.00 | 0.00 | 29 | 1008.1 |
| 20260503205000 | 71 | 324 | 6.0 | 6.0 | 0.00 | 0.00 | 0.00 | 31 | 1008.1 |
| 20260503204500 | 71 | 304 | 4.0 | 4.0 | 0.00 | 0.00 | 0.00 | 32 | 1008.1 |
| 20260503204001 | 71 | 290 | 2.0 | 2.0 | 0.00 | 0.00 | 0.00 | 31 | 1008.1 |
| 20260503203500 | 71 | 341 | 2.0 | 2.0 | 0.00 | 0.00 | 0.00 | 33 | 1008.1 |
| 20260503203000 | 71 | 0 | 0.0 | 0.0 | 0.00 | 0.00 | 0.00 | 31 | 1008.5 |
| 20260503202501 | 71 | 310 | 4.0 | 4.0 | 0.00 | 0.00 | 0.00 | 31 | 1008.5 |
| 20260503202000 | 71 | 330 | 2.0 | 2.0 | 0.00 | 0.00 | 0.00 | 32 | 1008.5 |
| 20260503201500 | 71 | 269 | 4.0 | 4.0 | 0.00 | 0.00 | 0.00 | 31 | 1008.5 |
| 20260503201001 | 71 | 333 | 4.0 | 4.0 | 0.00 | 0.00 | 0.00 | 31 | 1008.5 |
| 20260503200501 | 71 | 310 | 4.0 | 4.0 | 0.00 | 0.00 | 0.00 | 30 | 1008.5 |
| 20260503200001 | 70 | 82 | 10.0 | 10.0 | 0.00 | 0.00 | 0.00 | 33 | 1008.5 |
| 20260503195500 | 70 | 308 | 2.0 | 2.0 | 0.00 | 0.00 | 0.00 | 31 | 1008.5 |
| 20260503195000 | 70 | 316 | 1.0 | 1.0 | 0.00 | 0.00 | 0.00 | 33 | 1008.5 |
| 20260503194501 | 70 | 320 | 8.0 | 8.0 | 0.00 | 0.00 | 0.00 | 32 | 1008.5 |
| 20260503194002 | 70 | 317 | 3.0 | 3.0 | 0.00 | 0.00 | 0.00 | 32 | 1008.8 |
| 20260503193500 | 70 | 285 | 7.0 | 7.0 | 0.00 | 0.00 | 0.00 | 33 | 1008.5 |
| 20260503193001 | 70 | 5 | 2.0 | 2.0 | 0.00 | 0.00 | 0.00 | 32 | 1008.8 |
| 20260503192500 | 70 | 286 | 4.0 | 4.0 | 0.00 | 0.00 | 0.00 | 33 | 1008.8 |
| 20260503192001 | 70 | 321 | 2.0 | 2.0 | 0.00 | 0.00 | 0.00 | 34 | 1008.8 |
| 20260503191501 | 70 | 323 | 1.0 | 1.0 | 0.00 | 0.00 | 0.00 | 33 | 1008.8 |
| 20260503191001 | 70 | 292 | 3.0 | 3.0 | 0.00 | 0.00 | 0.00 | 34 | 1008.8 |
| 20260503190501 | 70 | 319 | 5.0 | 5.0 | 0.00 | 0.00 | 0.00 | 33 | 1008.8 |
| 20260503190001 | 70 | 315 | 2.0 | 2.0 | 0.00 | 0.00 | 0.00 | 32 | 1008.8 |
| 20260503185501 | 70 | 294 | 3.0 | 3.0 | 0.00 | 0.00 | 0.00 | 34 | 1008.8 |
| 20260503185000 | 69 | 317 | 4.0 | 4.0 | 0.00 | 0.00 | 0.00 | 35 | 1008.8 |
| 20260503184501 | 69 | 313 | 1.0 | 1.0 | 0.00 | 0.00 | 0.00 | 32 | 1008.8 |
| 20260503184001 | 70 | 350 | 2.0 | 2.0 | 0.00 | 0.00 | 0.00 | 34 | 1008.8 |
| 20260503183500 | 70 | 327 | 4.0 | 4.0 | 0.00 | 0.00 | 0.00 | 34 | 1009.1 |
| 20260503183001 | 70 | 64 | 1.0 | 1.0 | 0.00 | 0.00 | 0.00 | 34 | 1008.8 |
| 20260503182501 | 70 | 332 | 2.0 | 2.0 | 0.00 | 0.00 | 0.00 | 36 | 1008.8 |
| 20260503182001 | 70 | 0 | 0.0 | 0.0 | 0.00 | 0.00 | 0.00 | 38 | 1008.8 |
| 20260503181501 | 69 | 85 | 6.0 | 6.0 | 0.00 | 0.00 | 0.00 | 37 | 1009.1 |
| 20260503181001 | 69 | 313 | 1.0 | 1.0 | 0.00 | 0.00 | 0.00 | 39 | 1009.1 |
| 20260503180501 | 69 | 325 | 3.0 | 3.0 | 0.00 | 0.00 | 0.00 | 38 | 1009.1 |
| 20260503180001 | 68 | 340 | 1.0 | 1.0 | 0.00 | 0.00 | 0.00 | 39 | 1009.1 |
| 20260503175500 | 69 | 325 | 3.0 | 3.0 | 0.00 | 0.00 | 0.00 | 37 | 1009.1 |
| 20260503175001 | 68 | 338 | 1.0 | 1.0 | 0.00 | 0.00 | 0.00 | 39 | 1009.1 |
| 20260503174501 | 68 | 306 | 3.0 | 3.0 | 0.00 | 0.00 | 0.00 | 39 | 1009.1 |
| 20260503174000 | 68 | 331 | 2.0 | 2.0 | 0.00 | 0.00 | 0.00 | 37 | 1009.1 |
| 20260503173500 | 68 | 355 | 2.0 | 2.0 | 0.00 | 0.00 | 0.00 | 37 | 1009.1 |
| 20260503173000 | 68 | 328 | 3.0 | 3.0 | 0.00 | 0.00 | 0.00 | 39 | 1009.1 |
| 20260503172500 | 68 | 312 | 2.0 | 2.0 | 0.00 | 0.00 | 0.00 | 36 | 1009.1 |
| 20260503172001 | 68 | 333 | 2.0 | 2.0 | 0.00 | 0.00 | 0.00 | 40 | 1009.1 |
| 20260503171500 | 67 | 20 | 5.0 | 5.0 | 0.00 | 0.00 | 0.00 | 40 | 1009.1 |
| 20260503171001 | 67 | 304 | 5.0 | 5.0 | 0.00 | 0.00 | 0.00 | 40 | 1009.5 |
| 20260503170501 | 67 | 326 | 4.0 | 4.0 | 0.00 | 0.00 | 0.00 | 40 | 1009.5 |
| 20260503151001 | 62 | 329 | 1.0 | 1.0 | 0.00 | 0.00 | 0.00 | 49 | 1008.8 |
| 20260503150501 | 61 | 321 | 5.0 | 5.0 | 0.00 | 0.00 | 0.00 | 52 | 1008.8 |
| 20260503131001 | 56 | 199 | 1.0 | 1.0 | 0.00 | 0.00 | 0.00 | 52 | 1008.1 |
| 20260503130500 | 56 | 186 | 1.0 | 1.0 | 0.00 | 0.00 | 0.00 | 52 | 1008.1 |
| 20260503110501 | 52 | 177 | 1.0 | 1.0 | 0.00 | 0.00 | 0.00 | 52 | 1007.5 |